TimeAKDT,TemperatureF,Dew PointF,Humidity,Sea Level PressureIn,VisibilityMPH,Wind Direction,Wind SpeedMPH,Gust SpeedMPH,PrecipitationIn,Events,Conditions,WindDirDegrees,DateUTC
12:53 AM,48.9,37.0,64,29.46,10.0,East,28.8,35.7,N/A,,Overcast,90,2013-10-19 08:53:00
1:53 AM,51.1,36.0,56,29.41,10.0,East,18.4,28.8,0.00,,Mostly Cloudy,90,2013-10-19 09:53:00
2:53 AM,51.1,37.9,61,29.39,10.0,ENE,4.6,-,0.00,Rain,Light Rain,60,2013-10-19 10:53:00
3:53 AM,50.0,39.9,68,29.38,10.0,Variable,3.5,-,0.02,Rain,Light Rain,0,2013-10-19 11:53:00
4:53 AM,50.0,41.0,71,29.36,10.0,Calm,Calm,-,0.00,,Overcast,0,2013-10-19 12:53:00
5:53 AM,46.9,41.0,80,29.39,9.0,West,12.7,20.7,0.00,Rain,Light Rain,260,2013-10-19 13:53:00
6:02 AM,46.4,41.0,81,29.39,9.0,West,11.5,-,0.00,Rain,Light Rain,260,2013-10-19 14:02:00
6:27 AM,46.4,37.4,71,29.40,10.0,SW,6.9,-,0.00,,Overcast,220,2013-10-19 14:27:00
6:53 AM,50.0,35.1,57,29.40,10.0,South,10.4,-,0.00,,Partly Cloudy,170,2013-10-19 14:53:00
7:53 AM,48.9,36.0,61,29.41,10.0,SSE,11.5,18.4,N/A,,Partly Cloudy,160,2013-10-19 15:53:00
8:53 AM,48.9,36.0,61,29.41,10.0,Calm,Calm,-,N/A,,Scattered Clouds,0,2013-10-19 16:53:00
9:53 AM,48.0,37.0,66,29.43,10.0,Variable,3.5,-,N/A,,Partly Cloudy,0,2013-10-19 17:53:00
10:53 AM,50.0,37.9,63,29.45,10.0,SSE,9.2,21.9,N/A,,Overcast,150,2013-10-19 18:53:00
11:53 AM,51.1,37.0,59,29.47,10.0,South,12.7,20.7,N/A,,Mostly Cloudy,170,2013-10-19 19:53:00
12:53 PM,48.9,39.0,69,29.49,10.0,ESE,6.9,-,N/A,,Overcast,120,2013-10-19 20:53:00
1:53 PM,50.0,37.9,63,29.50,10.0,SE,9.2,18.4,N/A,,Overcast,140,2013-10-19 21:53:00
2:53 PM,50.0,39.0,66,29.52,10.0,ESE,5.8,-,N/A,,Overcast,120,2013-10-19 22:53:00
3:53 PM,50.0,39.0,66,29.52,10.0,SSE,9.2,17.3,N/A,,Mostly Cloudy,160,2013-10-19 23:53:00
4:53 PM,50.0,39.0,66,29.53,10.0,South,10.4,-,N/A,,Overcast,170,2013-10-20 00:53:00
5:53 PM,51.1,37.0,59,29.55,10.0,SSE,9.2,17.3,N/A,,Overcast,160,2013-10-20 01:53:00
6:53 PM,50.0,37.0,61,29.57,10.0,South,8.1,17.3,N/A,,Overcast,170,2013-10-20 02:53:00
7:53 PM,50.0,37.9,63,29.59,10.0,South,9.2,-,N/A,,Mostly Cloudy,170,2013-10-20 03:53:00
8:53 PM,50.0,39.0,66,29.61,10.0,SSE,8.1,-,N/A,,Mostly Cloudy,160,2013-10-20 04:53:00
9:36 PM,50.0,39.2,66,29.63,10.0,South,6.9,-,N/A,,Overcast,170,2013-10-20 05:36:00
9:45 PM,50.0,39.2,66,29.64,10.0,SSE,8.1,-,N/A,,Overcast,160,2013-10-20 05:45:00
9:53 PM,50.0,39.0,66,29.64,10.0,SSE,6.9,-,N/A,,Overcast,160,2013-10-20 05:53:00
10:53 PM,48.9,39.0,69,29.66,10.0,SE,5.8,-,N/A,,Overcast,140,2013-10-20 06:53:00
11:53 PM,48.9,37.9,66,29.68,10.0,Variable,4.6,-,N/A,,Overcast,0,2013-10-20 07:53:00